Weather History for Van Nuys, CA

Change the Weather History Date:

Tuesday, April 8, 2014

  Actual Average Record
Temperature  
Mean Temperature 72 °F -  
Max Temperature 90 °F 67 °F 90 °F (2014)
Min Temperature 55 °F 47 °F 39 °F (2011)
Cooling Degree Days 7    
Growing Degree Days 22 (Base 50)    
Moisture  
Dew Point 32 °F    
Average Humidity 26    
Maximum Humidity 57    
Minimum Humidity 8    
Precipitation  
Precipitation 0.00 in - - ()
Sea Level Pressure  
Sea Level Pressure 30.04 in    
Wind  
Wind Speed 3 mph (West)    
Max Wind Speed 12 mph    
Max Gust Speed 17 mph    
Visibility 10 miles    
Events      
Averages and records for this station are not official NWS values.
T = Trace of Precipitation, MM = Missing Value Source: NWS Daily Summary

Daily Weather History Graph

Daily Weather History Graph

Search for Another Location

Airport:

Trip Planner

Search our weather history database for the weather conditions in past years. The results will help you decide how hot, cold, wet, or windy it might be!

Date:

Astronomy

Apr. 08, 2014 Rise Set
Actual Time 6:31 AM PDT 7:20 PM PDT
Civil Twilight 6:06 AM PDT 7:45 PM PDT
Nautical Twilight 5:36 AM PDT 8:15 PM PDT
Astronomical Twilight 5:05 AM PDT 8:46 PM PDT
Moon 1:32 PM PDT (4/8) 2:32 AM PDT (4/8)
Length of Visible Light 13h 39m
Length of Day
12h 48m
Waxing Gibbous, 63% of the Moon is Illuminated
Apr 8
Waxing Gibbous
Apr 15
Full
Apr 22
Last Quarter
Apr 28
New
May 6
First Quarter

Hourly Weather History & Observations

Time (PDT) Temp. Dew Point Humidity Pressure Visibility Wind Dir Wind Speed Gust Speed Precip Events Conditions
12:51 AM 64.9 °F 36.0 °F 34% 30.06 in 10.0 mi North 3.5 mph - N/A   Clear
1:51 AM 63.0 °F 36.0 °F 37% 30.06 in 10.0 mi Calm Calm - N/A   Clear
2:51 AM 61.0 °F 37.9 °F 42% 30.06 in 10.0 mi Calm Calm - N/A   Clear
3:51 AM 61.0 °F 37.9 °F 42% 30.06 in 10.0 mi Calm Calm - N/A   Clear
4:51 AM 57.9 °F 39.0 °F 49% 30.06 in 10.0 mi Calm Calm - N/A   Clear
5:51 AM 57.9 °F 39.0 °F 49% 30.06 in 10.0 mi Calm Calm - N/A   Clear
6:51 AM 55.0 °F 39.9 °F 57% 30.09 in 10.0 mi Calm Calm - N/A   Clear
7:51 AM 62.1 °F 41.0 °F 46% 30.10 in 10.0 mi Calm Calm - N/A   Clear
8:51 AM 68.0 °F 39.9 °F 36% 30.09 in 10.0 mi Calm Calm - N/A   Clear
9:51 AM 75.0 °F 37.0 °F 25% 30.09 in 10.0 mi Calm Calm - N/A   Clear
10:51 AM 82.0 °F 33.1 °F 17% 30.09 in 10.0 mi Calm Calm - N/A   Clear
11:51 AM 86.0 °F 33.1 °F 15% 30.08 in 10.0 mi Variable 3.5 mph - N/A   Clear
12:51 PM 87.1 °F 32.0 °F 14% 30.06 in 10.0 mi Variable 5.8 mph - N/A   Clear
1:51 PM 89.1 °F 28.9 °F 12% 30.04 in 10.0 mi Variable 5.8 mph - N/A   Scattered Clouds
2:51 PM 89.1 °F 28.0 °F 11% 30.01 in 10.0 mi SSE 9.2 mph - N/A   Clear
3:51 PM 88.0 °F 25.0 °F 10% 30.00 in 10.0 mi South 11.5 mph 17.3 mph N/A   Clear
4:51 PM 88.0 °F 21.9 °F 9% 29.99 in 10.0 mi Variable 5.8 mph - N/A   Clear
5:51 PM 87.1 °F 19.9 °F 8% 29.99 in 10.0 mi SW 5.8 mph - N/A   Clear
6:51 PM 84.0 °F 28.0 °F 13% 29.98 in 10.0 mi WNW 9.2 mph - N/A   Clear
7:51 PM 79.0 °F 28.9 °F 16% 30.00 in 10.0 mi WNW 4.6 mph - N/A   Scattered Clouds
8:51 PM 75.9 °F 26.1 °F 16% 30.02 in 10.0 mi West 3.5 mph - N/A   Clear
9:51 PM 73.0 °F 28.0 °F 19% 30.02 in 10.0 mi NNW 3.5 mph - N/A   Clear
10:51 PM 70.0 °F 28.0 °F 21% 30.02 in 10.0 mi WNW 3.5 mph - N/A   Clear
11:51 PM 68.0 °F 28.9 °F 23% 30.03 in 10.0 mi WNW 4.6 mph - N/A   Clear